{"data":{"norad_id":57251,"intl_designator":"2023-094AK","name":"STARLINK-5513","alt_names":[],"object_type":"PAYLOAD","status":"ACTIVE","operator":null,"country":"US","launch_date":"2023-07-07","launch_site_code":"AFWTR","launch_vehicle":null,"mission":null,"orbit_class":"UNKNOWN","rcs_meters":null,"size_class":null,"mass_kg":null,"dimensions":null,"purposes":["comms"],"wikipedia_slug":null,"has_3d_model":false,"image_url":null,"decayed_at":null,"tle_current":{"epoch":"2026-09-20T17:54:04.444992Z","epoch_age_seconds":103085,"freshness":"FRESH","line1":"1 57251U 23094AK  26263.74588478  .00000079  00000+0  12405-4 0  9999","line2":"2 57251  43.0029 358.1149 0001495 265.5725  94.4956 15.27576983177074","mean_motion":15.27576983,"eccentricity":0.0001495,"inclination_deg":43.0029,"raan_deg":358.1149,"arg_perigee_deg":265.5725,"mean_anomaly_deg":94.4956,"bstar":1.2405e-5,"rev_number":17707,"period_min":94.266934892669,"perigee_km":482.03238136594,"apogee_km":484.08387870982,"semimajor_km":6861.1951300379,"source":"CELESTRAK","updated_at":"2026-09-21T09:00:33.591130Z"}}}